星链-35509(STARLINK-35509)

导读

STARLINK-35509是美国SpaceX星链星座的卫星,于2025年10月26日发射入轨,属于星链低轨互联网星座组网卫星。星链项目旨在为全球提供高速低延迟宽带互联网服务,该卫星延续了星链星座标准设计,服役后将补全网覆盖能力,支撑星座的通信服务运行。

基本信息
目录编号:
66199
目录名称:
STARLINK-35509
国际标识:
2025-243Y
轨道中心:
EARTH
卫星名称:
星链-35509
卫星全名:
星链-35509(STARLINK-35509)
卫星状态:
在轨 (已飞行314 天)
发射日期:
2025-10-26 UTC
国别 :
美国 (US)
星等 :
--
轨道信息
数据来源 国际轨道数据 AOE轨道数据
星历时间 2026-09-04T12:05:55+0800
1天前
查看轨道信息
2026-09-03T23:00:00+0800
1天前
查看轨道信息
半长轴 6843.3km 6843.37km
偏心率 0.0001251 0.0001028
轨道倾角 53.158° 53.159°
近地点辐角 87.612° 83.194°
升交点赤经 135.965° 138.515°
平近点角 272.502° 142.105°
近地点 464.306km 464.529km
远地点 466.02km 465.937km
周期 93.898分钟 93.900分钟
每日圈数 15.335731 15.335495
详细信息
固有亮度:
5
最大亮度:
2.5
卫星平台:
Starlink V1.0
覆盖范围:
全球
运营商:
太空探索技术公司
运营商所在国:
美国
制造商(研发单位):
太空探索技术公司
制造商所在国:
美国
使用方式:
暂无
卫星简介
Starlink 计划是 SpaceX 推出的全球卫星互联网项目,通过发射低轨道卫星,为全球尤其是偏远地区提供高速、低延迟的互联网服务。自 2019 年起,Starlink 已部署数千颗卫星,旨在缩小全球数字鸿沟,推动互联网普及。该项目还为军事、航空等行业提供通信支持,带来广泛经济效益。
2D轨道图
3D轨道图
轨道高度分析图
轨道倾角分析图
轨道综合分析图
查看轨道综合分析图
交会数据列表
事件ID 空间交会对象 最接近时刻(TCA) 交会距离 交会风险概率(CRP) 交会风险指数(CRI) 操作
CDM_260907-001405-211006-619922
2026-09-07T
00:14:15+0000
0.277 km
中距离
5.149761E-4 高风险 0.89
CDM_260907-150505-211006-619921
2026-09-07T
15:05:45+0000
0.850 km
远距离
4.013405E-5 中风险 0.67
CDM_260902-093506-619906-877421
2026-09-02T
09:35:22+0000
1.882 km
极远距离
3.224567E-6 低风险 0.45
CDM_260906-235806-510506-619921
2026-09-06T
23:58:48+0000
2.061 km
极远距离
2.236384E-6 低风险 0.42
CDM_260906-235306-619906-833121
2026-09-06T
23:53:18+0000
1.970 km
极远距离
2.188888E-6 低风险 0.42
CDM_260906-075305-343506-619921
2026-09-06T
07:53:12+0000
2.074 km
极远距离
2.159537E-6 低风险 0.42
CDM_260906-143006-619906-924721
2026-09-06T
14:30:01+0000
2.037 km
极远距离
1.995539E-6 低风险 0.41
CDM_260901-014406-050406-619922
YAM-7 (60504)
2026-09-01T
01:44:47+0000
2.351 km
极远距离
1.97042E-6 低风险 0.41
CDM_260906-031206-286806-619921
2026-09-06T
03:12:54+0000
2.160 km
极远距离
1.919642E-6 低风险 0.41
CDM_260905-090606-584806-619921
2026-09-05T
09:06:13+0000
2.272 km
极远距离
1.868589E-6 低风险 0.4